Time,TemperatureF,DewpointF,PressureIn,WindDirection,WindDirectionDegrees,WindSpeedMPH,WindSpeedGustMPH,Humidity,HourlyPrecipIn,Conditions,Clouds,dailyrainin,SolarRadiationWatts/m^2,SoftwareType,DateUTC
2013-01-18 00:10:00,-14.1,-23.4,23.25,NNW,343,1.0,1.0,62,0.00,,,0.00,0,Wunderground v.1.15,2013-01-18 05:10:00,
2013-01-18 00:20:00,-13.6,-22.3,23.26,North,360,0.0,0.0,64,0.00,,,0.00,0,Wunderground v.1.15,2013-01-18 05:20:00,
2013-01-18 00:40:00,-11.6,-19.8,23.26,NNW,343,1.0,1.0,66,0.00,,,0.00,0,Wunderground v.1.15,2013-01-18 05:40:00,
2013-01-18 00:50:00,-10.4,-18.6,23.26,North,360,0.0,0.0,66,0.00,,,0.00,0,Wunderground v.1.15,2013-01-18 05:50:00,
2013-01-18 01:01:00,-9.9,-18.2,23.26,North,360,0.0,0.0,66,0.00,,,0.00,0,Wunderground v.1.15,2013-01-18 06:01:00,
2013-01-18 01:10:00,-9.4,-18.0,23.26,NNW,343,0.0,0.0,65,0.00,,,0.00,0,Wunderground v.1.15,2013-01-18 06:10:00,
2013-01-18 01:20:00,-9.4,-18.3,23.26,NNW,343,0.0,0.0,64,0.00,,,0.00,0,Wunderground v.1.15,2013-01-18 06:20:00,
2013-01-18 01:30:00,-10.6,-19.7,23.26,NNW,343,0.0,0.0,63,0.00,,,0.00,0,Wunderground v.1.15,2013-01-18 06:30:00,
2013-01-18 01:40:00,-11.8,-20.9,23.27,NNW,343,0.0,0.0,63,0.00,,,0.00,0,Wunderground v.1.15,2013-01-18 06:40:00,
2013-01-18 01:50:00,-12.9,-21.9,23.26,North,360,0.0,0.0,63,0.00,,,0.00,0,Wunderground v.1.15,2013-01-18 06:50:00,
2013-01-18 02:10:00,-13.1,-21.5,23.26,NNW,343,0.0,0.0,65,0.00,,,0.00,0,Wunderground v.1.15,2013-01-18 07:10:00,
2013-01-18 02:20:00,-13.9,-22.3,23.27,North,360,0.0,0.0,65,0.00,,,0.00,0,Wunderground v.1.15,2013-01-18 07:20:00,
2013-01-18 02:31:00,-14.4,-22.8,23.27,NNW,343,0.0,1.0,65,0.00,,,0.00,0,Wunderground v.1.15,2013-01-18 07:31:00,
2013-01-18 02:40:00,-15.9,-24.5,23.27,North,360,0.0,1.0,64,0.00,,,0.00,0,Wunderground v.1.15,2013-01-18 07:40:00,
2013-01-18 02:50:00,-16.5,-24.8,23.27,NNW,343,0.0,0.0,65,0.00,,,0.00,0,Wunderground v.1.15,2013-01-18 07:50:00,
2013-01-18 03:01:00,-16.5,-24.5,23.27,NNW,343,0.0,0.0,66,0.00,,,0.00,0,Wunderground v.1.15,2013-01-18 08:01:00,
2013-01-18 03:10:00,-16.5,-24.5,23.27,North,360,0.0,0.0,66,0.00,,,0.00,0,Wunderground v.1.15,2013-01-18 08:10:00,
2013-01-18 03:20:00,-16.2,-24.2,23.27,North,360,0.0,0.0,66,0.00,,,0.00,0,Wunderground v.1.15,2013-01-18 08:20:00,
2013-01-18 03:30:00,-16.5,-24.5,23.27,NNW,343,0.0,0.0,66,0.00,,,0.00,0,Wunderground v.1.15,2013-01-18 08:30:00,
2013-01-18 03:40:00,-15.7,-23.4,23.27,North,360,0.0,0.0,67,0.00,,,0.00,0,Wunderground v.1.15,2013-01-18 08:40:00,
2013-01-18 03:50:00,-14.4,-21.6,23.27,North,360,0.0,0.0,69,0.00,,,0.00,0,Wunderground v.1.15,2013-01-18 08:50:00,
2013-01-18 04:10:00,-13.6,-21.1,23.27,NNW,343,0.0,0.0,68,0.00,,,0.00,0,Wunderground v.1.15,2013-01-18 09:10:00,
2013-01-18 04:20:00,-13.1,-20.7,23.27,NNW,343,0.0,0.0,68,0.00,,,0.00,0,Wunderground v.1.15,2013-01-18 09:20:00,
2013-01-18 04:40:00,-15.4,-24.0,23.27,NNW,343,0.0,0.0,64,0.00,,,0.00,0,Wunderground v.1.15,2013-01-18 09:40:00,
2013-01-18 04:50:00,-17.3,-26.1,23.27,NNW,343,0.0,0.0,63,0.00,,,0.00,0,Wunderground v.1.15,2013-01-18 09:50:00,
2013-01-18 05:00:00,-17.9,-26.4,23.27,NNW,343,0.0,0.0,64,0.00,,,0.00,0,Wunderground v.1.15,2013-01-18 10:00:00,
2013-01-18 05:10:00,-17.9,-26.1,23.27,North,360,0.0,0.0,65,0.00,,,0.00,0,Wunderground v.1.15,2013-01-18 10:10:00,
2013-01-18 05:20:00,-17.9,-26.1,23.27,NNW,343,0.0,0.0,65,0.00,,,0.00,0,Wunderground v.1.15,2013-01-18 10:20:00,
2013-01-18 05:30:00,-17.0,-24.7,23.27,NNW,343,0.0,0.0,67,0.00,,,0.00,0,Wunderground v.1.15,2013-01-18 10:30:00,
2013-01-18 05:40:00,-15.4,-22.9,23.28,NNW,343,0.0,0.0,68,0.00,,,0.00,0,Wunderground v.1.15,2013-01-18 10:40:00,
2013-01-18 05:50:00,-14.7,-21.9,23.28,NNW,343,0.0,0.0,69,0.00,,,0.00,0,Wunderground v.1.15,2013-01-18 10:50:00,
2013-01-18 06:10:00,-13.9,-21.1,23.28,NNW,343,0.0,0.0,69,0.00,,,0.00,0,Wunderground v.1.15,2013-01-18 11:10:00,
2013-01-18 06:20:00,-15.2,-23.2,23.28,NNW,343,0.0,0.0,66,0.00,,,0.00,0,Wunderground v.1.15,2013-01-18 11:20:00,
2013-01-18 06:40:00,-18.8,-27.0,23.28,NNW,343,0.0,0.0,65,0.00,,,0.00,0,Wunderground v.1.15,2013-01-18 11:40:00,
2013-01-18 06:50:00,-19.1,-27.3,23.28,NNW,343,0.0,0.0,65,0.00,,,0.00,0,Wunderground v.1.15,2013-01-18 11:50:00,
2013-01-18 07:10:00,-19.1,-27.0,23.28,NNW,343,0.0,0.0,66,0.00,,,0.00,0,Wunderground v.1.15,2013-01-18 12:10:00,
2013-01-18 07:20:00,-17.6,-25.0,23.28,NNW,343,0.0,0.0,68,0.00,,,0.00,0,Wunderground v.1.15,2013-01-18 12:20:00,
2013-01-18 07:31:00,-16.2,-23.6,23.28,NNW,343,0.0,0.0,68,0.00,,,0.00,7,Wunderground v.1.15,2013-01-18 12:31:00,
2013-01-18 07:40:00,-16.7,-24.4,23.29,NNW,343,0.0,0.0,67,0.00,,,0.00,9,Wunderground v.1.15,2013-01-18 12:40:00,
2013-01-18 07:50:00,-15.7,-22.9,23.29,NNW,343,0.0,0.0,69,0.00,,,0.00,16,Wunderground v.1.15,2013-01-18 12:50:00,
2013-01-18 08:10:00,-12.9,-20.5,23.29,NW,323,1.0,1.0,68,0.00,,,0.00,30,Wunderground v.1.15,2013-01-18 13:10:00,
2013-01-18 08:20:00,-11.8,-20.0,23.29,NW,323,1.0,2.0,66,0.00,,,0.00,30,Wunderground v.1.15,2013-01-18 13:20:00,
2013-01-18 08:40:00,-9.4,-18.6,23.29,NW,312,1.0,1.0,63,0.00,,,0.00,160,Wunderground v.1.15,2013-01-18 13:40:00,
2013-01-18 08:50:00,-8.5,-18.7,23.29,West,259,2.0,2.0,60,0.00,,,0.00,179,Wunderground v.1.15,2013-01-18 13:50:00,
2013-01-18 09:00:00,-7.8,-19.0,23.29,WSW,244,3.0,3.0,57,0.00,,,0.00,200,Wunderground v.1.15,2013-01-18 14:00:00,
2013-01-18 09:10:00,-6.4,-18.4,23.29,SW,231,2.0,2.0,55,0.00,,,0.00,227,Wunderground v.1.15,2013-01-18 14:10:00,
2013-01-18 09:20:00,-5.5,-18.3,23.29,SW,236,3.0,5.0,53,0.00,,,0.00,246,Wunderground v.1.15,2013-01-18 14:20:00,
2013-01-18 09:40:00,-3.6,-17.2,23.29,SSW,211,2.0,2.0,51,0.00,,,0.00,287,Wunderground v.1.15,2013-01-18 14:40:00,
2013-01-18 09:50:00,-2.3,-16.4,23.29,WSW,242,2.0,2.0,50,0.00,,,0.00,304,Wunderground v.1.15,2013-01-18 14:50:00,
2013-01-18 10:10:00,0.2,-15.3,23.29,West,272,4.0,4.0,47,0.00,,,0.00,330,Wunderground v.1.15,2013-01-18 15:10:00,
2013-01-18 10:20:00,1.2,-14.8,23.29,SW,219,4.0,4.0,46,0.00,,,0.00,343,Wunderground v.1.15,2013-01-18 15:20:00,
2013-01-18 10:40:00,2.7,-13.9,23.29,SW,232,4.0,4.0,45,0.00,,,0.00,369,Wunderground v.1.15,2013-01-18 15:40:00,
2013-01-18 10:50:00,2.9,-14.1,23.29,WSW,245,7.0,10.0,44,0.00,,,0.00,381,Wunderground v.1.15,2013-01-18 15:50:00,
2013-01-18 11:01:00,3.4,-13.7,23.29,WSW,238,6.0,6.0,44,0.00,,,0.00,392,Wunderground v.1.15,2013-01-18 16:01:00,
2013-01-18 11:10:00,4.2,-12.9,23.29,SSW,198,4.0,5.0,44,0.00,,,0.00,353,Wunderground v.1.15,2013-01-18 16:10:00,
2013-01-18 11:20:00,4.2,-12.5,23.29,SW,232,4.0,6.0,45,0.00,,,0.00,410,Wunderground v.1.15,2013-01-18 16:20:00,
2013-01-18 11:40:00,4.9,-12.3,23.29,WNW,288,4.0,4.0,44,0.00,,,0.00,422,Wunderground v.1.15,2013-01-18 16:40:00,
2013-01-18 11:50:00,5.5,-11.7,23.29,SSW,205,5.0,5.0,44,0.00,,,0.00,427,Wunderground v.1.15,2013-01-18 16:50:00,
2013-01-18 12:10:00,6.4,-10.9,23.29,SSW,211,4.0,5.0,44,0.00,,,0.00,429,Wunderground v.1.15,2013-01-18 17:10:00,
2013-01-18 12:20:00,6.4,-11.4,23.29,SW,218,6.0,6.0,43,0.00,,,0.00,429,Wunderground v.1.15,2013-01-18 17:20:00,
2013-01-18 12:40:00,7.8,-11.1,23.28,SSW,209,5.0,8.0,41,0.00,,,0.00,422,Wunderground v.1.15,2013-01-18 17:40:00,
2013-01-18 12:50:00,7.3,-11.0,23.29,WNW,288,6.0,7.0,42,0.00,,,0.00,417,Wunderground v.1.15,2013-01-18 17:50:00,
2013-01-18 13:10:00,6.9,-10.5,23.29,WSW,257,7.0,7.0,44,0.00,,,0.00,403,Wunderground v.1.15,2013-01-18 18:10:00,
2013-01-18 13:20:00,7.1,-10.3,23.29,WSW,238,6.0,7.0,44,0.00,,,0.00,392,Wunderground v.1.15,2013-01-18 18:20:00,
2013-01-18 13:40:00,7.3,-10.6,23.29,SW,236,7.0,7.0,43,0.00,,,0.00,369,Wunderground v.1.15,2013-01-18 18:40:00,
2013-01-18 13:50:00,8.2,-9.3,23.29,WSW,255,5.0,5.0,44,0.00,,,0.00,355,Wunderground v.1.15,2013-01-18 18:50:00,
2013-01-18 14:10:00,8.0,-9.4,23.29,SW,227,6.0,6.0,44,0.00,,,0.00,327,Wunderground v.1.15,2013-01-18 19:10:00,
2013-01-18 14:20:00,8.0,-9.9,23.28,SW,220,6.0,6.0,43,0.00,,,0.00,309,Wunderground v.1.15,2013-01-18 19:20:00,
2013-01-18 14:40:00,8.5,-9.5,23.28,SW,227,6.0,6.0,43,0.00,,,0.00,272,Wunderground v.1.15,2013-01-18 19:40:00,
2013-01-18 14:50:00,8.5,-9.5,23.28,SW,231,6.0,6.0,43,0.00,,,0.00,251,Wunderground v.1.15,2013-01-18 19:50:00,
2013-01-18 15:10:00,8.5,-9.9,23.28,WSW,258,5.0,8.0,42,0.00,,,0.00,216,Wunderground v.1.15,2013-01-18 20:10:00,
2013-01-18 15:20:00,8.3,-9.6,23.28,SSW,205,6.0,6.0,43,0.00,,,0.00,178,Wunderground v.1.15,2013-01-18 20:20:00,
2013-01-18 15:40:00,8.0,-9.9,23.28,WSW,249,5.0,5.0,43,0.00,,,0.00,109,Wunderground v.1.15,2013-01-18 20:40:00,
2013-01-18 15:50:00,7.6,-9.4,23.28,SW,235,6.0,6.0,45,0.00,,,0.00,32,Wunderground v.1.15,2013-01-18 20:50:00,
2013-01-18 16:10:00,7.1,-9.4,23.28,SW,236,6.0,6.0,46,0.00,,,0.00,25,Wunderground v.1.15,2013-01-18 21:10:00,
2013-01-18 16:20:00,6.8,-9.2,23.28,WSW,258,5.0,5.0,47,0.00,,,0.00,21,Wunderground v.1.15,2013-01-18 21:20:00,
2013-01-18 16:30:00,6.6,-9.0,23.28,SW,223,5.0,5.0,48,0.00,,,0.00,14,Wunderground v.1.15,2013-01-18 21:30:00,
2013-01-18 16:40:00,6.6,-9.4,23.28,WSW,238,5.0,5.0,47,0.00,,,0.00,5,Wunderground v.1.15,2013-01-18 21:40:00,
2013-01-18 16:50:00,6.4,-9.6,23.28,SW,228,4.0,6.0,47,0.00,,,0.00,0,Wunderground v.1.15,2013-01-18 21:50:00,
2013-01-18 17:10:00,6.2,-9.8,23.28,SW,215,3.0,5.0,47,0.00,,,0.00,0,Wunderground v.1.15,2013-01-18 22:10:00,
2013-01-18 17:20:00,6.0,-9.5,23.28,SSW,200,3.0,5.0,48,0.00,,,0.00,0,Wunderground v.1.15,2013-01-18 22:20:00,
2013-01-18 17:40:00,5.5,-9.6,23.28,SSW,212,1.0,2.0,49,0.00,,,0.00,0,Wunderground v.1.15,2013-01-18 22:40:00,
2013-01-18 17:50:00,5.3,-9.3,23.28,SSW,212,0.0,1.0,50,0.00,,,0.00,0,Wunderground v.1.15,2013-01-18 22:50:00,
2013-01-18 18:10:00,4.6,-9.2,23.28,SSW,212,0.0,0.0,52,0.00,,,0.00,0,Wunderground v.1.15,2013-01-18 23:10:00,
2013-01-18 18:20:00,3.3,-9.6,23.28,SSW,212,0.0,0.0,54,0.00,,,0.00,0,Wunderground v.1.15,2013-01-18 23:20:00,
2013-01-18 18:30:00,2.1,-10.0,23.28,SSW,212,0.0,0.0,56,0.00,,,0.00,0,Wunderground v.1.15,2013-01-18 23:30:00,
2013-01-18 18:40:00,2.1,-9.7,23.28,SSW,212,0.0,0.0,57,0.00,,,0.00,0,Wunderground v.1.15,2013-01-18 23:40:00,
2013-01-18 18:50:00,1.9,-9.5,23.28,SSW,212,0.0,0.0,58,0.00,,,0.00,0,Wunderground v.1.15,2013-01-18 23:50:00,
2013-01-18 19:01:00,1.9,-9.2,23.28,SSW,212,0.0,0.0,59,0.00,,,0.00,0,Wunderground v.1.15,2013-01-19 00:01:00,
2013-01-18 19:10:00,2.1,-9.0,23.28,SSW,212,0.0,0.0,59,0.00,,,0.00,0,Wunderground v.1.15,2013-01-19 00:10:00,
2013-01-18 19:20:00,2.7,-8.4,23.28,SSW,212,0.0,0.0,59,0.00,,,0.00,0,Wunderground v.1.15,2013-01-19 00:20:00,
2013-01-18 19:40:00,3.8,-7.7,23.28,SSW,212,0.0,0.0,58,0.00,,,0.00,0,Wunderground v.1.15,2013-01-19 00:40:00,
2013-01-18 19:50:00,4.9,-7.0,23.28,SSW,212,1.0,1.0,57,0.00,,,0.00,0,Wunderground v.1.15,2013-01-19 00:50:00,
2013-01-18 20:00:00,5.1,-7.2,23.28,SSW,213,0.0,0.0,56,0.00,,,0.00,0,Wunderground v.1.15,2013-01-19 01:00:00,
2013-01-18 20:10:00,4.7,-7.6,23.28,SSW,212,0.0,0.0,56,0.00,,,0.00,0,Wunderground v.1.15,2013-01-19 01:10:00,
2013-01-18 20:20:00,4.2,-8.1,23.28,SSW,212,0.0,0.0,56,0.00,,,0.00,0,Wunderground v.1.15,2013-01-19 01:20:00,
2013-01-18 20:30:00,3.8,-8.1,23.28,SSW,212,0.0,0.0,57,0.00,,,0.00,0,Wunderground v.1.15,2013-01-19 01:30:00,
2013-01-18 20:40:00,4.2,-7.7,23.27,SSW,212,0.0,0.0,57,0.00,,,0.00,0,Wunderground v.1.15,2013-01-19 01:40:00,
2013-01-18 20:50:00,3.8,-7.0,23.27,SSW,213,0.0,0.0,60,0.00,,,0.00,0,Wunderground v.1.15,2013-01-19 01:50:00,
2013-01-18 21:10:00,4.6,-6.6,23.27,SSW,213,0.0,0.0,59,0.00,,,0.00,0,Wunderground v.1.15,2013-01-19 02:10:00,
2013-01-18 21:20:00,4.6,-6.6,23.27,SSW,212,0.0,0.0,59,0.00,,,0.00,0,Wunderground v.1.15,2013-01-19 02:20:00,
2013-01-18 21:30:00,4.4,-6.4,23.27,SSW,212,0.0,0.0,60,0.00,,,0.00,0,Wunderground v.1.15,2013-01-19 02:30:00,
2013-01-18 21:40:00,4.2,-6.6,23.27,SSW,212,0.0,0.0,60,0.00,,,0.00,0,Wunderground v.1.15,2013-01-19 02:40:00,
2013-01-18 21:50:00,4.2,-6.0,23.27,SSW,212,0.0,0.0,62,0.00,,,0.00,0,Wunderground v.1.15,2013-01-19 02:50:00,
2013-01-18 22:01:00,4.4,-5.1,23.27,SSW,212,0.0,0.0,64,0.00,,,0.00,0,Wunderground v.1.15,2013-01-19 03:01:00,
2013-01-18 22:10:00,4.4,-4.5,23.26,SSW,212,0.0,0.0,66,0.00,,,0.00,0,Wunderground v.1.15,2013-01-19 03:10:00,
2013-01-18 22:20:00,4.6,-3.6,23.26,SSW,211,0.0,2.0,68,0.00,,,0.00,0,Wunderground v.1.15,2013-01-19 03:20:00,
2013-01-18 22:40:00,4.6,-2.7,23.26,SSE,150,3.0,3.0,71,0.00,,,0.00,0,Wunderground v.1.15,2013-01-19 03:40:00,
2013-01-18 22:50:00,4.6,-2.4,23.26,SSE,148,3.0,4.0,72,0.00,,,0.00,0,Wunderground v.1.15,2013-01-19 03:50:00,
2013-01-18 23:10:00,4.6,-1.9,23.25,ESE,103,4.0,5.0,74,0.00,,,0.00,0,Wunderground v.1.15,2013-01-19 04:10:00,
2013-01-18 23:20:00,4.6,-1.6,23.25,ESE,104,3.0,4.0,75,0.00,,,0.00,0,Wunderground v.1.15,2013-01-19 04:20:00,
2013-01-18 23:30:00,4.6,-1.6,23.25,ESE,104,2.0,2.0,75,0.00,,,0.00,0,Wunderground v.1.15,2013-01-19 04:30:00,
2013-01-18 23:40:00,4.7,-1.2,23.25,ESE,104,3.0,4.0,76,0.00,,,0.00,0,Wunderground v.1.15,2013-01-19 04:40:00,
2013-01-18 23:50:00,4.7,-1.2,23.25,East,101,3.0,3.0,76,0.00,,,0.00,0,Wunderground v.1.15,2013-01-19 04:50:00,